Time,TemperatureF,DewpointF,PressureIn,WindDirection,WindDirectionDegrees,WindSpeedMPH,WindSpeedGustMPH,Humidity,HourlyPrecipIn,Conditions,Clouds,dailyrainin,SoftwareType,DateUTC
2013-03-03 00:00:00,30.9,-2.6,30.30,WNW,292,0.0,0.0,23,0.00,CLR,,0.00,WeatherDisplay:10.37,2013-03-03 06:00:00,
2013-03-03 00:05:00,30.9,-2.6,30.30,WNW,292,0.0,0.0,23,0.00,CLR,,0.00,WeatherDisplay:10.37,2013-03-03 06:05:00,
2013-03-03 00:10:00,31.1,-2.5,30.30,WNW,292,0.0,0.0,23,0.00,CLR,,0.00,WeatherDisplay:10.37,2013-03-03 06:10:00,
2013-03-03 00:15:00,30.9,-2.6,30.30,WNW,292,0.0,0.0,23,0.00,CLR,,0.00,WeatherDisplay:10.37,2013-03-03 06:15:00,
2013-03-03 00:20:00,30.9,-2.6,30.30,WNW,292,0.0,0.0,23,0.00,CLR,,0.00,WeatherDisplay:10.37,2013-03-03 06:20:00,
2013-03-03 00:25:00,30.9,-2.6,30.30,WNW,292,0.0,0.0,23,0.00,CLR,,0.00,WeatherDisplay:10.37,2013-03-03 06:25:00,
2013-03-03 00:30:00,30.9,-2.6,30.30,WNW,292,0.0,0.0,23,0.00,CLR,,0.00,WeatherDisplay:10.37,2013-03-03 06:30:00,
2013-03-03 00:35:00,30.7,-1.0,30.30,WNW,292,0.0,0.0,25,0.00,CLR,,0.00,WeatherDisplay:10.37,2013-03-03 06:35:00,
2013-03-03 00:40:00,30.6,-1.2,30.30,WNW,292,0.0,0.0,25,0.00,CLR,,0.00,WeatherDisplay:10.37,2013-03-03 06:40:00,
2013-03-03 00:45:00,30.6,-1.2,30.30,WNW,292,0.0,0.0,25,0.00,CLR,,0.00,WeatherDisplay:10.37,2013-03-03 06:45:00,
2013-03-03 00:50:00,30.6,-1.2,30.30,WNW,292,0.0,0.0,25,0.00,CLR,,0.00,WeatherDisplay:10.37,2013-03-03 06:50:00,
2013-03-03 00:55:00,30.2,-1.5,30.30,WNW,292,0.0,0.0,25,0.00,CLR,,0.00,WeatherDisplay:10.37,2013-03-03 06:55:00,
2013-03-03 01:01:00,30.0,-1.6,30.30,WNW,292,0.0,0.0,25,0.00,CLR,,0.00,WeatherDisplay:10.37,2013-03-03 07:01:00,
2013-03-03 01:06:00,30.2,-1.5,30.30,WNW,292,0.0,0.0,25,0.00,CLR,,0.00,WeatherDisplay:10.37,2013-03-03 07:06:00,
2013-03-03 01:11:00,30.2,-1.5,30.30,WNW,292,0.0,0.0,25,0.00,CLR,,0.00,WeatherDisplay:10.37,2013-03-03 07:11:00,
2013-03-03 01:16:00,30.2,-1.5,30.30,WNW,292,0.0,0.0,25,0.00,CLR,,0.00,WeatherDisplay:10.37,2013-03-03 07:16:00,
2013-03-03 01:21:00,30.2,-1.5,30.30,WNW,292,0.0,0.0,25,0.00,CLR,,0.00,WeatherDisplay:10.37,2013-03-03 07:21:00,
2013-03-03 01:26:00,30.2,-1.5,30.30,WNW,292,0.0,0.0,25,0.00,CLR,,0.00,WeatherDisplay:10.37,2013-03-03 07:26:00,
2013-03-03 01:31:00,30.2,0.9,30.30,WNW,292,0.0,0.0,28,0.00,CLR,,0.00,WeatherDisplay:10.37,2013-03-03 07:31:00,
2013-03-03 01:36:00,30.0,0.8,30.30,WNW,292,0.0,0.0,28,0.00,CLR,,0.00,WeatherDisplay:10.37,2013-03-03 07:36:00,
2013-03-03 01:41:00,29.8,-1.8,30.27,WNW,292,0.0,0.0,25,0.00,CLR,,0.00,WeatherDisplay:10.37,2013-03-03 07:41:00,
2013-03-03 01:46:00,30.0,-1.6,30.27,WNW,292,0.0,0.0,25,0.00,CLR,,0.00,WeatherDisplay:10.37,2013-03-03 07:46:00,
2013-03-03 01:51:00,30.0,0.8,30.27,WNW,292,0.0,0.0,28,0.00,CLR,,0.00,WeatherDisplay:10.37,2013-03-03 07:51:00,
2013-03-03 01:56:00,29.8,0.6,30.27,WNW,292,0.0,0.0,28,0.00,CLR,,0.00,WeatherDisplay:10.37,2013-03-03 07:56:00,
2013-03-03 02:01:00,29.7,0.5,30.27,WNW,292,0.0,0.0,28,0.00,CLR,,0.00,WeatherDisplay:10.37,2013-03-03 08:01:00,
2013-03-03 02:06:00,29.5,0.3,30.27,WNW,292,0.0,0.0,28,0.00,CLR,,0.00,WeatherDisplay:10.37,2013-03-03 08:06:00,
2013-03-03 02:11:00,29.5,0.3,30.27,WNW,292,0.0,0.0,28,0.00,CLR,,0.00,WeatherDisplay:10.37,2013-03-03 08:11:00,
2013-03-03 02:16:00,29.5,0.3,30.27,WNW,292,0.0,0.0,28,0.00,CLR,,0.00,WeatherDisplay:10.37,2013-03-03 08:16:00,
2013-03-03 02:21:00,29.5,0.3,30.27,WNW,292,0.0,0.0,28,0.00,CLR,,0.00,WeatherDisplay:10.37,2013-03-03 08:21:00,
2013-03-03 02:26:00,29.1,0.0,30.27,WNW,292,0.0,0.0,28,0.00,CLR,,0.00,WeatherDisplay:10.37,2013-03-03 08:26:00,
2013-03-03 02:31:00,29.1,0.0,30.27,WNW,292,0.0,0.0,28,0.00,CLR,,0.00,WeatherDisplay:10.37,2013-03-03 08:31:00,
2013-03-03 02:36:00,29.3,0.2,30.27,WNW,292,0.0,0.0,28,0.00,CLR,,0.00,WeatherDisplay:10.37,2013-03-03 08:36:00,
2013-03-03 02:41:00,29.1,0.0,30.27,WNW,292,0.0,0.0,28,0.00,CLR,,0.00,WeatherDisplay:10.37,2013-03-03 08:41:00,
2013-03-03 02:46:00,29.1,0.0,30.27,WNW,292,0.0,0.0,28,0.00,CLR,,0.00,WeatherDisplay:10.37,2013-03-03 08:46:00,
2013-03-03 02:51:00,28.9,-0.1,30.27,WNW,292,0.0,0.0,28,0.00,CLR,,0.00,WeatherDisplay:10.37,2013-03-03 08:51:00,
2013-03-03 02:56:00,28.8,-0.3,30.27,WNW,292,0.0,0.0,28,0.00,CLR,,0.00,WeatherDisplay:10.37,2013-03-03 08:56:00,
2013-03-03 03:01:00,28.6,-0.5,30.27,WNW,292,0.0,0.0,28,0.00,CLR,,0.00,WeatherDisplay:10.37,2013-03-03 09:01:00,
2013-03-03 03:06:00,28.4,-0.6,30.27,WNW,292,0.0,0.0,28,0.00,CLR,,0.00,WeatherDisplay:10.37,2013-03-03 09:06:00,
2013-03-03 03:11:00,28.8,1.2,30.27,WNW,292,0.0,0.0,30,0.00,CLR,,0.00,WeatherDisplay:10.37,2013-03-03 09:11:00,
2013-03-03 03:16:00,28.9,1.3,30.27,WNW,292,0.0,0.0,30,0.00,CLR,,0.00,WeatherDisplay:10.37,2013-03-03 09:16:00,
2013-03-03 03:21:00,28.8,1.2,30.27,WNW,292,0.0,0.0,30,0.00,CLR,,0.00,WeatherDisplay:10.37,2013-03-03 09:21:00,
2013-03-03 03:26:00,28.9,1.3,30.27,WNW,292,0.0,0.0,30,0.00,CLR,,0.00,WeatherDisplay:10.37,2013-03-03 09:26:00,
2013-03-03 03:31:00,28.9,2.0,30.27,WNW,292,0.0,0.0,31,0.00,CLR,,0.00,WeatherDisplay:10.37,2013-03-03 09:31:00,
2013-03-03 03:36:00,28.6,1.7,30.27,WNW,292,0.0,0.0,31,0.00,CLR,,0.00,WeatherDisplay:10.37,2013-03-03 09:36:00,
2013-03-03 03:41:00,28.6,1.7,30.27,WNW,292,0.0,0.0,31,0.00,CLR,,0.00,WeatherDisplay:10.37,2013-03-03 09:41:00,
2013-03-03 03:46:00,28.4,1.6,30.27,WNW,292,0.0,0.0,31,0.00,CLR,,0.00,WeatherDisplay:10.37,2013-03-03 09:46:00,
2013-03-03 03:51:00,28.2,1.4,30.27,WNW,292,0.0,0.0,31,0.00,CLR,,0.00,WeatherDisplay:10.37,2013-03-03 09:51:00,
2013-03-03 03:56:00,28.0,1.2,30.27,WNW,292,0.0,0.0,31,0.00,CLR,,0.00,WeatherDisplay:10.37,2013-03-03 09:56:00,
2013-03-03 04:01:00,28.2,1.4,30.27,WNW,292,0.0,0.0,31,0.00,CLR,,0.00,WeatherDisplay:10.37,2013-03-03 10:01:00,
2013-03-03 04:06:00,28.2,1.4,30.27,WNW,292,0.0,0.0,31,0.00,CLR,,0.00,WeatherDisplay:10.37,2013-03-03 10:06:00,
2013-03-03 04:11:00,27.9,1.1,30.27,WNW,292,0.0,0.0,31,0.00,CLR,,0.00,WeatherDisplay:10.37,2013-03-03 10:11:00,
2013-03-03 04:16:00,27.9,1.1,30.27,WNW,292,0.0,0.0,31,0.00,CLR,,0.00,WeatherDisplay:10.37,2013-03-03 10:16:00,
2013-03-03 04:21:00,27.9,1.1,30.27,WNW,292,0.0,0.0,31,0.00,CLR,,0.00,WeatherDisplay:10.37,2013-03-03 10:21:00,
2013-03-03 04:26:00,28.0,1.2,30.27,WNW,292,0.0,0.0,31,0.00,CLR,,0.00,WeatherDisplay:10.37,2013-03-03 10:26:00,
2013-03-03 04:31:00,28.0,1.2,30.27,WNW,292,0.0,0.0,31,0.00,CLR,,0.00,WeatherDisplay:10.37,2013-03-03 10:31:00,
2013-03-03 04:36:00,27.9,1.1,30.27,WNW,292,0.0,0.0,31,0.00,CLR,,0.00,WeatherDisplay:10.37,2013-03-03 10:36:00,
2013-03-03 04:41:00,28.0,1.2,30.27,WNW,292,0.0,0.0,31,0.00,CLR,,0.00,WeatherDisplay:10.37,2013-03-03 10:41:00,
2013-03-03 04:46:00,28.2,1.4,30.27,WNW,292,0.0,0.0,31,0.00,CLR,,0.00,WeatherDisplay:10.37,2013-03-03 10:46:00,
2013-03-03 04:51:00,28.2,1.4,30.27,WNW,292,0.0,0.0,31,0.00,CLR,,0.00,WeatherDisplay:10.37,2013-03-03 10:51:00,
2013-03-03 04:56:00,28.4,1.6,30.27,WNW,292,0.0,0.0,31,0.00,CLR,,0.00,WeatherDisplay:10.37,2013-03-03 10:56:00,
2013-03-03 05:01:00,28.0,1.2,30.27,WNW,292,0.0,0.0,31,0.00,CLR,,0.00,WeatherDisplay:10.37,2013-03-03 11:01:00,
2013-03-03 05:06:00,28.0,1.2,30.27,WNW,292,0.0,0.0,31,0.00,CLR,,0.00,WeatherDisplay:10.37,2013-03-03 11:06:00,
2013-03-03 05:11:00,28.2,1.4,30.24,WNW,292,0.0,0.0,31,0.00,CLR,,0.00,WeatherDisplay:10.37,2013-03-03 11:11:00,
2013-03-03 05:16:00,28.6,1.7,30.24,NW,315,0.0,0.0,31,0.00,CLR,,0.00,WeatherDisplay:10.37,2013-03-03 11:16:00,
2013-03-03 05:21:00,28.4,1.6,30.24,NW,315,0.0,0.0,31,0.00,CLR,,0.00,WeatherDisplay:10.37,2013-03-03 11:21:00,
2013-03-03 05:26:00,28.2,1.4,30.24,NW,315,0.0,0.0,31,0.00,CLR,,0.00,WeatherDisplay:10.37,2013-03-03 11:26:00,
2013-03-03 05:31:00,28.6,1.7,30.24,NW,315,0.0,0.0,31,0.00,CLR,,0.00,WeatherDisplay:10.37,2013-03-03 11:31:00,
2013-03-03 05:36:00,28.4,2.2,30.24,NW,315,0.0,0.0,32,0.00,CLR,,0.00,WeatherDisplay:10.37,2013-03-03 11:36:00,
2013-03-03 05:41:00,28.4,2.2,30.27,NW,315,0.0,0.0,32,0.00,CLR,,0.00,WeatherDisplay:10.37,2013-03-03 11:41:00,
2013-03-03 05:46:00,28.6,3.1,30.27,NW,315,0.0,0.0,33,0.00,CLR,,0.00,WeatherDisplay:10.37,2013-03-03 11:46:00,
2013-03-03 05:51:00,28.4,2.9,30.27,ESE,112,0.0,0.0,33,0.00,CLR,,0.00,WeatherDisplay:10.37,2013-03-03 11:51:00,
2013-03-03 05:56:00,28.2,2.7,30.27,ESE,112,0.0,0.0,33,0.00,CLR,,0.00,WeatherDisplay:10.37,2013-03-03 11:56:00,
2013-03-03 06:01:00,28.2,2.7,30.27,ESE,112,0.0,0.0,33,0.00,CLR,,0.00,WeatherDisplay:10.37,2013-03-03 12:01:00,
2013-03-03 06:06:00,28.2,2.7,30.27,ESE,112,0.0,0.0,33,0.00,CLR,,0.00,WeatherDisplay:10.37,2013-03-03 12:06:00,
2013-03-03 06:11:00,28.0,1.9,30.27,ESE,112,0.0,0.0,32,0.00,CLR,,0.00,WeatherDisplay:10.37,2013-03-03 12:11:00,
2013-03-03 06:16:00,28.0,1.9,30.27,ESE,112,0.0,0.0,32,0.00,CLR,,0.00,WeatherDisplay:10.37,2013-03-03 12:16:00,
2013-03-03 06:21:00,27.9,1.8,30.27,ESE,112,0.0,0.0,32,0.00,CLR,,0.00,WeatherDisplay:10.37,2013-03-03 12:21:00,
2013-03-03 06:26:00,28.0,1.9,30.27,ESE,112,0.0,0.0,32,0.00,CLR,,0.00,WeatherDisplay:10.37,2013-03-03 12:26:00,
2013-03-03 06:32:00,28.0,1.9,30.27,ESE,112,0.0,0.0,32,0.00,CLR,,0.00,WeatherDisplay:10.37,2013-03-03 12:32:00,
2013-03-03 06:37:00,27.7,1.6,30.27,ESE,112,0.0,0.0,32,0.00,CLR,,0.00,WeatherDisplay:10.37,2013-03-03 12:37:00,
2013-03-03 06:42:00,27.9,1.8,30.27,ESE,112,0.0,0.0,32,0.00,CLR,,0.00,WeatherDisplay:10.37,2013-03-03 12:42:00,
2013-03-03 06:47:00,28.0,1.9,30.27,ESE,112,0.0,0.0,32,0.00,CLR,,0.00,WeatherDisplay:10.37,2013-03-03 12:47:00,
2013-03-03 06:52:00,28.6,2.4,30.27,ESE,112,0.0,0.0,32,0.00,CLR,,0.00,WeatherDisplay:10.37,2013-03-03 12:52:00,
2013-03-03 06:57:00,29.8,3.5,30.30,WNW,292,0.0,0.0,32,0.00,CLR,,0.00,WeatherDisplay:10.37,2013-03-03 12:57:00,
2013-03-03 07:02:00,31.3,4.8,30.30,WNW,292,0.0,0.0,32,0.00,CLR,,0.00,WeatherDisplay:10.37,2013-03-03 13:02:00,
2013-03-03 07:07:00,32.2,5.6,30.30,WNW,292,0.0,0.0,32,0.00,CLR,,0.00,WeatherDisplay:10.37,2013-03-03 13:07:00,
2013-03-03 07:12:00,33.4,7.4,30.30,North,0,0.0,0.0,33,0.00,CLR,,0.00,WeatherDisplay:10.37,2013-03-03 13:12:00,
2013-03-03 07:17:00,34.2,7.3,30.30,North,0,0.0,0.0,32,0.00,CLR,,0.00,WeatherDisplay:10.37,2013-03-03 13:17:00,
2013-03-03 07:22:00,34.9,8.0,30.30,ESE,112,0.0,0.0,32,0.00,CLR,,0.00,WeatherDisplay:10.37,2013-03-03 13:22:00,
2013-03-03 07:27:00,36.1,9.1,30.27,ESE,112,0.0,0.0,32,0.00,CLR,,0.00,WeatherDisplay:10.37,2013-03-03 13:27:00,
2013-03-03 07:32:00,37.0,9.9,30.27,ESE,112,0.0,0.0,32,0.00,CLR,,0.00,WeatherDisplay:10.37,2013-03-03 13:32:00,
2013-03-03 07:37:00,37.6,9.6,30.27,ESE,112,0.0,0.0,31,0.00,CLR,,0.00,WeatherDisplay:10.37,2013-03-03 13:37:00,
2013-03-03 07:42:00,38.1,10.1,30.30,ESE,112,0.0,0.0,31,0.00,CLR,,0.00,WeatherDisplay:10.37,2013-03-03 13:42:00,
2013-03-03 07:47:00,38.8,10.7,30.30,ESE,112,0.0,0.0,31,0.00,CLR,,0.00,WeatherDisplay:10.37,2013-03-03 13:47:00,
2013-03-03 07:52:00,40.6,12.3,30.30,NNE,22,0.0,0.0,31,0.00,CLR,,0.00,WeatherDisplay:10.37,2013-03-03 13:52:00,
2013-03-03 07:57:00,41.2,12.0,30.30,NE,45,0.0,0.0,30,0.00,CLR,,0.00,WeatherDisplay:10.37,2013-03-03 13:57:00,
2013-03-03 08:02:00,43.2,13.8,30.30,NNE,22,0.0,0.0,30,0.00,CLR,,0.00,WeatherDisplay:10.37,2013-03-03 14:02:00,
2013-03-03 08:07:00,44.6,15.0,30.30,NNW,338,0.0,0.0,30,0.00,CLR,,0.00,WeatherDisplay:10.37,2013-03-03 14:07:00,
2013-03-03 08:12:00,46.2,15.7,30.30,NNW,338,0.0,0.0,29,0.00,CLR,,0.00,WeatherDisplay:10.37,2013-03-03 14:12:00,
2013-03-03 08:17:00,48.0,16.4,30.30,North,0,0.0,0.0,28,0.00,CLR,,0.00,WeatherDisplay:10.37,2013-03-03 14:17:00,
2013-03-03 08:22:00,49.1,16.5,30.30,NNE,22,0.0,0.0,27,0.00,CLR,,0.00,WeatherDisplay:10.37,2013-03-03 14:22:00,
2013-03-03 08:27:00,50.4,14.9,30.33,NNW,338,0.0,0.0,24,0.00,CLR,,0.00,WeatherDisplay:10.37,2013-03-03 14:27:00,
2013-03-03 08:32:00,50.2,11.7,30.33,NW,315,0.0,0.0,21,0.00,CLR,,0.00,WeatherDisplay:10.37,2013-03-03 14:32:00,
2013-03-03 08:37:00,51.4,10.5,30.33,WNW,292,0.0,0.0,19,0.00,CLR,,0.00,WeatherDisplay:10.37,2013-03-03 14:37:00,
2013-03-03 08:42:00,51.3,10.3,30.33,NNW,338,0.0,0.0,19,0.00,CLR,,0.00,WeatherDisplay:10.37,2013-03-03 14:42:00,
2013-03-03 08:47:00,52.9,10.5,30.33,NNW,338,2.3,2.3,18,0.00,CLR,,0.00,WeatherDisplay:10.37,2013-03-03 14:47:00,
2013-03-03 08:52:00,54.1,11.5,30.33,NW,315,0.0,0.0,18,0.00,CLR,,0.00,WeatherDisplay:10.37,2013-03-03 14:52:00,
2013-03-03 08:57:00,54.9,12.1,30.33,West,270,0.0,0.0,18,0.00,CLR,,0.00,WeatherDisplay:10.37,2013-03-03 14:57:00,
2013-03-03 09:02:00,55.4,11.2,30.33,WSW,248,0.0,0.0,17,0.00,CLR,,0.00,WeatherDisplay:10.37,2013-03-03 15:02:00,
2013-03-03 09:07:00,55.9,11.7,30.33,NW,315,2.3,0.0,17,0.00,CLR,,0.00,WeatherDisplay:10.37,2013-03-03 15:07:00,
2013-03-03 09:12:00,56.8,12.4,30.30,West,270,2.6,2.6,17,0.00,CLR,,0.00,WeatherDisplay:10.37,2013-03-03 15:12:00,
2013-03-03 09:17:00,56.7,12.3,30.30,NW,315,3.6,3.6,17,0.00,CLR,,0.00,WeatherDisplay:10.37,2013-03-03 15:17:00,
2013-03-03 09:22:00,56.8,12.4,30.30,North,0,1.2,1.4,17,0.00,CLR,,0.00,WeatherDisplay:10.37,2013-03-03 15:22:00,
2013-03-03 09:27:00,57.6,13.0,30.33,WNW,292,4.6,4.6,17,0.00,CLR,,0.00,WeatherDisplay:10.37,2013-03-03 15:27:00,
2013-03-03 09:32:00,58.1,13.4,30.33,WNW,292,3.5,3.5,17,0.00,CLR,,0.00,WeatherDisplay:10.37,2013-03-03 15:32:00,
2013-03-03 09:37:00,58.1,13.4,30.33,WSW,248,5.8,5.8,17,0.00,CLR,,0.00,WeatherDisplay:10.37,2013-03-03 15:37:00,
2013-03-03 09:42:00,58.1,13.4,30.33,NNW,338,1.2,1.4,17,0.00,CLR,,0.00,WeatherDisplay:10.37,2013-03-03 15:42:00,
2013-03-03 09:47:00,58.1,13.4,30.33,WNW,292,4.6,4.6,17,0.00,CLR,,0.00,WeatherDisplay:10.37,2013-03-03 15:47:00,
2013-03-03 09:52:00,58.5,13.7,30.33,NNW,338,2.3,2.3,17,0.00,CLR,,0.00,WeatherDisplay:10.37,2013-03-03 15:52:00,
2013-03-03 09:57:00,58.5,13.7,30.30,WNW,292,5.8,5.8,17,0.00,CLR,,0.00,WeatherDisplay:10.37,2013-03-03 15:57:00,
2013-03-03 10:02:00,59.2,14.3,30.30,SW,225,4.6,4.6,17,0.00,CLR,,0.00,WeatherDisplay:10.37,2013-03-03 16:02:00,
2013-03-03 10:07:00,59.4,14.5,30.30,SSE,158,5.8,5.8,17,0.00,CLR,,0.00,WeatherDisplay:10.37,2013-03-03 16:07:00,
2013-03-03 10:12:00,60.4,15.4,30.30,ESE,112,3.5,3.5,17,0.00,CLR,,0.00,WeatherDisplay:10.37,2013-03-03 16:12:00,
2013-03-03 10:17:00,60.4,15.4,30.30,West,270,6.9,6.9,17,0.00,CLR,,0.00,WeatherDisplay:10.37,2013-03-03 16:17:00,
2013-03-03 10:22:00,60.6,15.5,30.30,WNW,292,2.3,2.3,17,0.00,CLR,,0.00,WeatherDisplay:10.37,2013-03-03 16:22:00,
2013-03-03 10:27:00,60.3,15.2,30.30,South,180,3.5,3.5,17,0.00,CLR,,0.00,WeatherDisplay:10.37,2013-03-03 16:27:00,
2013-03-03 10:32:00,60.6,15.5,30.30,NNW,338,2.3,4.3,17,0.00,CLR,,0.00,WeatherDisplay:10.37,2013-03-03 16:32:00,
2013-03-03 10:37:00,61.9,15.1,30.30,West,270,3.5,3.5,16,0.00,CLR,,0.00,WeatherDisplay:10.37,2013-03-03 16:37:00,
2013-03-03 10:42:00,61.2,14.5,30.30,SW,225,1.2,3.3,16,0.00,CLR,,0.00,WeatherDisplay:10.37,2013-03-03 16:42:00,
2013-03-03 10:47:00,61.0,14.4,30.30,NW,315,5.8,5.8,16,0.00,CLR,,0.00,WeatherDisplay:10.37,2013-03-03 16:47:00,
2013-03-03 10:52:00,62.4,15.6,30.30,WNW,292,3.5,3.5,16,0.00,CLR,,0.00,WeatherDisplay:10.37,2013-03-03 16:52:00,
2013-03-03 10:57:00,61.2,14.5,30.30,WSW,248,5.8,5.8,16,0.00,CLR,,0.00,WeatherDisplay:10.37,2013-03-03 16:57:00,
2013-03-03 11:03:00,61.0,14.4,30.30,WSW,248,2.3,4.9,16,0.00,CLR,,0.00,WeatherDisplay:10.37,2013-03-03 17:03:00,
2013-03-03 11:08:00,60.6,15.5,30.30,NW,315,5.8,5.9,17,0.00,CLR,,0.00,WeatherDisplay:10.37,2013-03-03 17:08:00,
2013-03-03 11:13:00,61.5,14.8,30.27,West,270,5.8,5.8,16,0.00,CLR,,0.00,WeatherDisplay:10.37,2013-03-03 17:13:00,
2013-03-03 11:18:00,60.4,15.4,30.27,WNW,292,8.1,8.1,17,0.00,CLR,,0.00,WeatherDisplay:10.37,2013-03-03 17:18:00,
2013-03-03 11:23:00,61.0,14.4,30.27,NNW,338,6.9,6.9,16,0.00,CLR,,0.00,WeatherDisplay:10.37,2013-03-03 17:23:00,
2013-03-03 11:28:00,62.6,15.7,30.27,SE,135,4.6,4.6,16,0.00,CLR,,0.00,WeatherDisplay:10.37,2013-03-03 17:28:00,
2013-03-03 11:33:00,61.5,14.8,30.27,WSW,248,4.6,4.6,16,0.00,CLR,,0.00,WeatherDisplay:10.37,2013-03-03 17:33:00,
2013-03-03 11:38:00,62.4,15.6,30.27,West,270,6.9,6.9,16,0.00,CLR,,0.00,WeatherDisplay:10.37,2013-03-03 17:38:00,
2013-03-03 11:43:00,62.2,15.4,30.24,WSW,248,5.8,5.8,16,0.00,CLR,,0.00,WeatherDisplay:10.37,2013-03-03 17:43:00,
2013-03-03 11:48:00,61.9,15.1,30.24,East,90,5.8,5.8,16,0.00,CLR,,0.00,WeatherDisplay:10.37,2013-03-03 17:48:00,
2013-03-03 11:53:00,63.7,16.6,30.24,WNW,292,3.5,3.5,16,0.00,CLR,,0.00,WeatherDisplay:10.37,2013-03-03 17:53:00,
2013-03-03 11:58:00,63.1,16.2,30.27,WNW,292,5.8,7.1,16,0.00,CLR,,0.00,WeatherDisplay:10.37,2013-03-03 17:58:00,
2013-03-03 12:03:00,63.1,16.2,30.27,WNW,292,5.8,7.1,16,0.00,CLR,,0.00,WeatherDisplay:10.37,2013-03-03 18:03:00,
2013-03-03 12:08:00,63.3,16.3,30.27,SSW,202,3.5,5.4,16,0.00,CLR,,0.00,WeatherDisplay:10.37,2013-03-03 18:08:00,
2013-03-03 12:13:00,63.7,16.6,30.27,SE,135,3.5,3.5,16,0.00,CLR,,0.00,WeatherDisplay:10.37,2013-03-03 18:13:00,
2013-03-03 12:18:00,65.1,16.3,30.27,South,180,1.2,1.4,15,0.00,CLR,,0.00,WeatherDisplay:10.37,2013-03-03 18:18:00,
2013-03-03 12:23:00,64.4,15.7,30.27,NNW,338,4.6,4.6,15,0.00,CLR,,0.00,WeatherDisplay:10.37,2013-03-03 18:23:00,
2013-03-03 12:28:00,65.3,16.4,30.24,South,180,4.6,4.6,15,0.00,CLR,,0.00,WeatherDisplay:10.37,2013-03-03 18:28:00,
2013-03-03 12:33:00,64.6,15.8,30.24,South,180,4.6,4.6,15,0.00,CLR,,0.00,WeatherDisplay:10.37,2013-03-03 18:33:00,
2013-03-03 12:38:00,65.7,16.7,30.24,South,180,4.6,4.6,15,0.00,CLR,,0.00,WeatherDisplay:10.37,2013-03-03 18:38:00,
2013-03-03 12:43:00,67.1,17.8,30.21,South,180,4.6,4.6,15,0.00,CLR,,0.00,WeatherDisplay:10.37,2013-03-03 18:43:00,
2013-03-03 12:48:00,66.9,17.7,30.21,South,180,4.6,4.6,15,0.00,CLR,,0.00,WeatherDisplay:10.37,2013-03-03 18:48:00,
2013-03-03 12:53:00,66.2,17.1,30.21,South,180,4.6,4.6,15,0.00,CLR,,0.00,WeatherDisplay:10.37,2013-03-03 18:53:00,
2013-03-03 12:58:00,67.8,18.4,30.21,South,180,4.6,4.6,15,0.00,CLR,,0.00,WeatherDisplay:10.37,2013-03-03 18:58:00,
2013-03-03 13:03:00,67.3,18.0,30.21,SSW,202,3.5,3.5,15,0.00,CLR,,0.00,WeatherDisplay:10.37,2013-03-03 19:03:00,
2013-03-03 13:08:00,68.9,19.3,30.21,WSW,248,3.5,3.5,15,0.00,CLR,,0.00,WeatherDisplay:10.37,2013-03-03 19:08:00,
2013-03-03 13:13:00,67.8,18.4,30.18,South,180,6.9,6.9,15,0.00,CLR,,0.00,WeatherDisplay:10.37,2013-03-03 19:13:00,
2013-03-03 13:18:00,67.6,18.3,30.18,SE,135,1.2,3.1,15,0.00,CLR,,0.00,WeatherDisplay:10.37,2013-03-03 19:18:00,
2013-03-03 13:23:00,67.8,18.4,30.18,SE,135,1.2,3.1,15,0.00,CLR,,0.00,WeatherDisplay:10.37,2013-03-03 19:23:00,
2013-03-03 13:28:00,68.0,18.6,30.21,SE,135,1.4,3.1,15,0.00,CLR,,0.00,WeatherDisplay:10.37,2013-03-03 19:28:00,
2013-03-03 13:33:00,67.1,17.8,30.21,WSW,248,3.5,3.6,15,0.00,CLR,,0.00,WeatherDisplay:10.37,2013-03-03 19:33:00,
2013-03-03 13:38:00,66.4,17.3,30.21,WSW,248,3.5,3.6,15,0.00,CLR,,0.00,WeatherDisplay:10.37,2013-03-03 19:38:00,
2013-03-03 13:43:00,66.4,17.3,30.18,WSW,248,3.5,3.6,15,0.00,CLR,,0.00,WeatherDisplay:10.37,2013-03-03 19:43:00,
2013-03-03 13:48:00,66.2,17.1,30.18,WSW,248,3.5,3.6,15,0.00,CLR,,0.00,WeatherDisplay:10.37,2013-03-03 19:48:00,
2013-03-03 13:53:00,66.6,17.4,30.18,NW,315,8.1,8.1,15,0.00,CLR,,0.00,WeatherDisplay:10.37,2013-03-03 19:53:00,
2013-03-03 13:58:00,67.5,18.1,30.18,WSW,248,6.9,6.9,15,0.00,CLR,,0.00,WeatherDisplay:10.37,2013-03-03 19:58:00,
2013-03-03 14:03:00,68.0,18.6,30.18,NW,315,2.3,2.3,15,0.00,CLR,,0.00,WeatherDisplay:10.37,2013-03-03 20:03:00,
2013-03-03 14:08:00,67.5,18.1,30.18,WSW,248,6.9,6.9,15,0.00,CLR,,0.00,WeatherDisplay:10.37,2013-03-03 20:08:00,
2013-03-03 14:13:00,67.1,17.8,30.18,SW,225,5.8,5.8,15,0.00,CLR,,0.00,WeatherDisplay:10.37,2013-03-03 20:13:00,
2013-03-03 14:18:00,69.6,19.9,30.18,WNW,292,3.5,3.5,15,0.00,CLR,,0.00,WeatherDisplay:10.37,2013-03-03 20:18:00,
2013-03-03 14:23:00,69.6,19.9,30.18,WSW,248,5.8,5.8,15,0.00,CLR,,0.00,WeatherDisplay:10.37,2013-03-03 20:23:00,
2013-03-03 14:28:00,69.3,19.6,30.15,SSW,202,5.8,5.8,15,0.00,CLR,,0.00,WeatherDisplay:10.37,2013-03-03 20:28:00,
2013-03-03 14:33:00,68.7,19.1,30.15,SSW,202,5.8,5.8,15,0.00,CLR,,0.00,WeatherDisplay:10.37,2013-03-03 20:33:00,
2013-03-03 14:38:00,69.1,19.4,30.15,SSW,202,3.5,3.5,15,0.00,CLR,,0.00,WeatherDisplay:10.37,2013-03-03 20:38:00,
2013-03-03 14:43:00,69.3,19.6,30.15,WSW,248,2.9,4.9,15,0.00,CLR,,0.00,WeatherDisplay:10.37,2013-03-03 20:43:00,
2013-03-03 14:48:00,69.3,19.6,30.15,West,270,3.5,4.0,15,0.00,CLR,,0.00,WeatherDisplay:10.37,2013-03-03 20:48:00,
2013-03-03 14:53:00,68.2,18.7,30.15,WNW,292,5.8,5.8,15,0.00,CLR,,0.00,WeatherDisplay:10.37,2013-03-03 20:53:00,
2013-03-03 14:58:00,68.4,18.9,30.15,South,180,5.8,5.8,15,0.00,CLR,,0.00,WeatherDisplay:10.37,2013-03-03 20:58:00,
2013-03-03 15:03:00,67.6,18.3,30.15,SSW,202,10.4,10.4,15,0.00,CLR,,0.00,WeatherDisplay:10.37,2013-03-03 21:03:00,
2013-03-03 15:08:00,67.1,17.8,30.15,WSW,248,6.9,6.9,15,0.00,CLR,,0.00,WeatherDisplay:10.37,2013-03-03 21:08:00,
2013-03-03 15:13:00,66.7,17.6,30.15,SW,225,5.8,5.8,15,0.00,CLR,,0.00,WeatherDisplay:10.37,2013-03-03 21:13:00,
2013-03-03 15:18:00,66.9,17.7,30.15,SE,135,6.9,6.9,15,0.00,CLR,,0.00,WeatherDisplay:10.37,2013-03-03 21:18:00,
2013-03-03 15:23:00,66.4,17.3,30.15,South,180,5.8,5.8,15,0.00,CLR,,0.00,WeatherDisplay:10.37,2013-03-03 21:23:00,
2013-03-03 15:28:00,66.2,17.1,30.15,SSE,158,3.5,3.5,15,0.00,CLR,,0.00,WeatherDisplay:10.37,2013-03-03 21:28:00,
2013-03-03 15:33:00,65.8,16.8,30.15,SW,225,5.8,5.9,15,0.00,CLR,,0.00,WeatherDisplay:10.37,2013-03-03 21:33:00,
2013-03-03 15:38:00,65.5,16.5,30.15,NNW,338,5.8,5.8,15,0.00,CLR,,0.00,WeatherDisplay:10.37,2013-03-03 21:38:00,
2013-03-03 15:43:00,65.3,16.4,30.15,SW,225,5.8,5.8,15,0.00,CLR,,0.00,WeatherDisplay:10.37,2013-03-03 21:43:00,
2013-03-03 15:49:00,64.2,17.0,30.15,SSE,158,5.8,5.8,16,0.00,CLR,,0.00,WeatherDisplay:10.37,2013-03-03 21:49:00,
2013-03-03 15:54:00,63.9,16.7,30.15,SE,135,6.9,6.9,16,0.00,CLR,,0.00,WeatherDisplay:10.37,2013-03-03 21:54:00,
2013-03-03 15:59:00,63.9,16.7,30.15,SSE,158,5.8,5.8,16,0.00,CLR,,0.00,WeatherDisplay:10.37,2013-03-03 21:59:00,
2013-03-03 16:04:00,64.0,16.9,30.15,SSW,202,5.8,5.8,16,0.00,CLR,,0.00,WeatherDisplay:10.37,2013-03-03 22:04:00,
2013-03-03 16:09:00,63.7,16.6,30.15,West,270,4.6,5.6,16,0.00,CLR,,0.00,WeatherDisplay:10.37,2013-03-03 22:09:00,
2013-03-03 16:14:00,63.5,16.4,30.12,SE,135,5.8,5.8,16,0.00,CLR,,0.00,WeatherDisplay:10.37,2013-03-03 22:14:00,
2013-03-03 16:19:00,63.1,16.2,30.12,SE,135,5.8,5.8,16,0.00,CLR,,0.00,WeatherDisplay:10.37,2013-03-03 22:19:00,
2013-03-03 16:24:00,62.6,15.7,30.12,SSW,202,7.8,7.8,16,0.00,CLR,,0.00,WeatherDisplay:10.37,2013-03-03 22:24:00,
2013-03-03 16:29:00,61.7,15.0,30.15,ESE,112,6.9,6.9,16,0.00,CLR,,0.00,WeatherDisplay:10.37,2013-03-03 22:29:00,
2013-03-03 16:34:00,61.5,14.8,30.15,West,270,5.8,5.8,16,0.00,CLR,,0.00,WeatherDisplay:10.37,2013-03-03 22:34:00,
2013-03-03 16:39:00,61.7,15.0,30.15,SW,225,9.2,9.2,16,0.00,CLR,,0.00,WeatherDisplay:10.37,2013-03-03 22:39:00,
2013-03-03 16:44:00,61.3,14.7,30.15,SSW,202,8.1,8.1,16,0.00,CLR,,0.00,WeatherDisplay:10.37,2013-03-03 22:44:00,
2013-03-03 16:49:00,61.0,14.4,30.15,ESE,112,4.6,4.6,16,0.00,CLR,,0.00,WeatherDisplay:10.37,2013-03-03 22:49:00,
2013-03-03 16:54:00,60.6,15.5,30.15,South,180,8.1,8.1,17,0.00,CLR,,0.00,WeatherDisplay:10.37,2013-03-03 22:54:00,
2013-03-03 16:59:00,60.4,15.4,30.15,WSW,248,6.9,6.9,17,0.00,CLR,,0.00,WeatherDisplay:10.37,2013-03-03 22:59:00,
2013-03-03 17:04:00,60.3,15.2,30.15,WNW,292,5.8,5.8,17,0.00,CLR,,0.00,WeatherDisplay:10.37,2013-03-03 23:04:00,
2013-03-03 17:09:00,59.9,14.9,30.15,South,180,4.6,4.6,17,0.00,CLR,,0.00,WeatherDisplay:10.37,2013-03-03 23:09:00,
2013-03-03 17:14:00,60.6,15.5,30.15,SSE,158,3.5,3.5,17,0.00,CLR,,0.00,WeatherDisplay:10.37,2013-03-03 23:14:00,
2013-03-03 17:19:00,60.4,15.4,30.15,SSW,202,5.8,5.8,17,0.00,CLR,,0.00,WeatherDisplay:10.37,2013-03-03 23:19:00,
2013-03-03 17:24:00,60.4,15.4,30.15,SSW,202,5.8,5.8,17,0.00,CLR,,0.00,WeatherDisplay:10.37,2013-03-03 23:24:00,
2013-03-03 17:29:00,60.1,15.1,30.15,SW,225,4.6,4.6,17,0.00,CLR,,0.00,WeatherDisplay:10.37,2013-03-03 23:29:00,
2013-03-03 17:34:00,59.4,14.5,30.15,SSW,202,5.8,5.8,17,0.00,CLR,,0.00,WeatherDisplay:10.37,2013-03-03 23:34:00,
2013-03-03 17:39:00,59.2,14.3,30.15,SSW,202,8.1,8.1,17,0.00,CLR,,0.00,WeatherDisplay:10.37,2013-03-03 23:39:00,
2013-03-03 17:44:00,57.9,13.3,30.15,WNW,292,4.6,4.6,17,0.00,CLR,,0.00,WeatherDisplay:10.37,2013-03-03 23:44:00,
2013-03-03 17:49:00,57.6,13.0,30.15,SSE,158,8.1,8.1,17,0.00,CLR,,0.00,WeatherDisplay:10.37,2013-03-03 23:49:00,
2013-03-03 17:54:00,56.7,12.3,30.15,WNW,292,5.8,5.8,17,0.00,CLR,,0.00,WeatherDisplay:10.37,2013-03-03 23:54:00,
2013-03-03 17:59:00,56.3,12.0,30.15,WSW,248,2.3,2.4,17,0.00,CLR,,0.00,WeatherDisplay:10.37,2013-03-03 23:59:00,
2013-03-03 18:04:00,54.7,11.9,30.15,SSW,202,5.8,5.8,18,0.00,CLR,,0.00,WeatherDisplay:10.37,2013-03-04 00:04:00,
2013-03-03 18:09:00,54.1,11.5,30.15,South,180,3.5,3.5,18,0.00,CLR,,0.00,WeatherDisplay:10.37,2013-03-04 00:09:00,
2013-03-03 18:14:00,53.6,11.0,30.15,WSW,248,6.9,6.9,18,0.00,CLR,,0.00,WeatherDisplay:10.37,2013-03-04 00:14:00,
2013-03-03 18:19:00,53.1,10.6,30.15,SW,225,5.8,5.8,18,0.00,CLR,,0.00,WeatherDisplay:10.37,2013-03-04 00:19:00,
2013-03-03 18:24:00,52.7,10.3,30.15,SE,135,3.5,3.5,18,0.00,CLR,,0.00,WeatherDisplay:10.37,2013-03-04 00:24:00,
2013-03-03 18:30:00,52.0,9.7,30.12,SSE,158,2.3,2.3,18,0.00,CLR,,0.00,WeatherDisplay:10.37,2013-03-04 00:30:00,
2013-03-03 18:35:00,51.6,10.6,30.12,WSW,248,3.5,3.5,19,0.00,CLR,,0.00,WeatherDisplay:10.37,2013-03-04 00:35:00,
2013-03-03 18:40:00,51.4,10.5,30.12,ENE,68,2.3,2.3,19,0.00,CLR,,0.00,WeatherDisplay:10.37,2013-03-04 00:40:00,
2013-03-03 18:45:00,51.1,10.2,30.15,SE,135,3.5,3.5,19,0.00,CLR,,0.00,WeatherDisplay:10.37,2013-03-04 00:45:00,
2013-03-03 18:50:00,50.9,10.0,30.15,SSE,158,2.3,2.3,19,0.00,CLR,,0.00,WeatherDisplay:10.37,2013-03-04 00:50:00,
2013-03-03 18:55:00,50.7,9.9,30.15,SSW,202,3.5,3.5,19,0.00,CLR,,0.00,WeatherDisplay:10.37,2013-03-04 00:55:00,
2013-03-03 19:00:00,50.5,9.7,30.15,SSW,202,4.6,4.6,19,0.00,CLR,,0.00,WeatherDisplay:10.37,2013-03-04 01:00:00,
2013-03-03 19:05:00,50.2,9.4,30.15,West,270,2.3,2.3,19,0.00,CLR,,0.00,WeatherDisplay:10.37,2013-03-04 01:05:00,
2013-03-03 19:10:00,50.2,9.4,30.15,SSW,202,2.3,2.3,19,0.00,CLR,,0.00,WeatherDisplay:10.37,2013-03-04 01:10:00,
2013-03-03 19:15:00,49.8,9.1,30.15,West,270,2.3,2.3,19,0.00,CLR,,0.00,WeatherDisplay:10.37,2013-03-04 01:15:00,
2013-03-03 19:20:00,49.8,9.1,30.15,SW,225,1.2,0.0,19,0.00,CLR,,0.00,WeatherDisplay:10.37,2013-03-04 01:20:00,
2013-03-03 19:25:00,49.6,9.0,30.15,SSW,202,1.2,1.4,19,0.00,CLR,,0.00,WeatherDisplay:10.37,2013-03-04 01:25:00,
2013-03-03 19:30:00,49.5,8.8,30.15,SW,225,0.0,0.0,19,0.00,CLR,,0.00,WeatherDisplay:10.37,2013-03-04 01:30:00,
2013-03-03 19:35:00,49.3,8.7,30.15,WSW,248,1.2,1.2,19,0.00,CLR,,0.00,WeatherDisplay:10.37,2013-03-04 01:35:00,
2013-03-03 19:40:00,49.1,8.5,30.15,SW,225,0.0,0.0,19,0.00,CLR,,0.00,WeatherDisplay:10.37,2013-03-04 01:40:00,
2013-03-03 19:45:00,49.1,8.5,30.15,ESE,112,0.0,0.0,19,0.00,CLR,,0.00,WeatherDisplay:10.37,2013-03-04 01:45:00,
2013-03-03 19:50:00,49.1,8.5,30.15,SSW,202,3.5,3.5,19,0.00,CLR,,0.00,WeatherDisplay:10.37,2013-03-04 01:50:00,
2013-03-03 19:55:00,49.1,8.5,30.15,ESE,112,3.5,3.5,19,0.00,CLR,,0.00,WeatherDisplay:10.37,2013-03-04 01:55:00,
2013-03-03 20:00:00,49.1,8.5,30.12,South,180,4.6,4.6,19,0.00,CLR,,0.00,WeatherDisplay:10.37,2013-03-04 02:00:00,
2013-03-03 20:05:00,49.1,8.5,30.12,SSW,202,3.5,3.5,19,0.00,CLR,,0.00,WeatherDisplay:10.37,2013-03-04 02:05:00,
2013-03-03 20:10:00,48.9,8.4,30.12,SW,225,1.2,1.2,19,0.00,CLR,,0.00,WeatherDisplay:10.37,2013-03-04 02:10:00,
2013-03-03 20:15:00,48.6,8.1,30.12,South,180,0.0,0.0,19,0.00,CLR,,0.00,WeatherDisplay:10.37,2013-03-04 02:15:00,
2013-03-03 20:20:00,48.6,8.1,30.12,East,90,0.0,0.0,19,0.00,CLR,,0.00,WeatherDisplay:10.37,2013-03-04 02:20:00,
2013-03-03 20:25:00,48.6,8.1,30.12,SSE,158,2.3,2.3,19,0.00,CLR,,0.00,WeatherDisplay:10.37,2013-03-04 02:25:00,
2013-03-03 20:30:00,48.4,7.9,30.15,SSW,202,2.3,2.3,19,0.00,CLR,,0.00,WeatherDisplay:10.37,2013-03-04 02:30:00,
2013-03-03 20:35:00,48.2,7.8,30.15,NE,45,3.5,0.0,19,0.00,CLR,,0.00,WeatherDisplay:10.37,2013-03-04 02:35:00,
2013-03-03 20:40:00,48.0,7.6,30.15,ESE,112,1.2,1.2,19,0.00,CLR,,0.00,WeatherDisplay:10.37,2013-03-04 02:40:00,
2013-03-03 20:45:00,47.8,7.5,30.15,SSE,158,0.0,0.0,19,0.00,CLR,,0.00,WeatherDisplay:10.37,2013-03-04 02:45:00,
2013-03-03 20:50:00,47.7,7.3,30.15,South,180,0.0,0.0,19,0.00,CLR,,0.00,WeatherDisplay:10.37,2013-03-04 02:50:00,
2013-03-03 20:55:00,47.3,7.0,30.15,SE,135,0.0,0.0,19,0.00,CLR,,0.00,WeatherDisplay:10.37,2013-03-04 02:55:00,
2013-03-03 21:00:00,47.3,7.0,30.15,SE,135,0.0,0.0,19,0.00,CLR,,0.00,WeatherDisplay:10.37,2013-03-04 03:00:00,
2013-03-03 21:05:00,47.1,6.9,30.15,SE,135,0.0,0.0,19,0.00,CLR,,0.00,WeatherDisplay:10.37,2013-03-04 03:05:00,
2013-03-03 21:10:00,47.3,7.0,30.15,SE,135,0.0,0.0,19,0.00,CLR,,0.00,WeatherDisplay:10.37,2013-03-04 03:10:00,
2013-03-03 21:15:00,47.3,7.0,30.15,SSE,158,0.0,0.0,19,0.00,CLR,,0.00,WeatherDisplay:10.37,2013-03-04 03:15:00,
2013-03-03 21:20:00,47.3,7.0,30.15,SW,225,0.0,0.0,19,0.00,CLR,,0.00,WeatherDisplay:10.37,2013-03-04 03:20:00,
2013-03-03 21:25:00,47.5,7.2,30.15,South,180,0.0,0.0,19,0.00,CLR,,0.00,WeatherDisplay:10.37,2013-03-04 03:25:00,
2013-03-03 21:30:00,47.7,7.3,30.15,ESE,112,2.3,2.3,19,0.00,CLR,,0.00,WeatherDisplay:10.37,2013-03-04 03:30:00,
2013-03-03 21:35:00,48.2,7.8,30.15,SE,135,1.2,0.0,19,0.00,CLR,,0.00,WeatherDisplay:10.37,2013-03-04 03:35:00,
2013-03-03 21:40:00,48.6,8.1,30.15,SSE,158,2.3,0.0,19,0.00,CLR,,0.00,WeatherDisplay:10.37,2013-03-04 03:40:00,
2013-03-03 21:45:00,48.6,8.1,30.09,ESE,112,3.5,3.5,19,0.00,CLR,,0.00,WeatherDisplay:10.37,2013-03-04 03:45:00,
2013-03-03 21:50:00,48.9,10.6,30.09,SSE,158,2.3,0.0,21,0.00,CLR,,0.00,WeatherDisplay:10.37,2013-03-04 03:50:00,
2013-03-03 21:55:00,49.1,10.8,30.09,West,270,0.0,0.0,21,0.00,CLR,,0.00,WeatherDisplay:10.37,2013-03-04 03:55:00,
2013-03-03 22:00:00,49.3,10.9,30.12,WSW,248,4.6,4.6,21,0.00,CLR,,0.00,WeatherDisplay:10.37,2013-03-04 04:00:00,
2013-03-03 22:05:00,49.5,11.1,30.12,ESE,112,3.5,3.5,21,0.00,CLR,,0.00,WeatherDisplay:10.37,2013-03-04 04:05:00,
2013-03-03 22:10:00,49.5,11.1,30.12,SW,225,2.3,2.3,21,0.00,CLR,,0.00,WeatherDisplay:10.37,2013-03-04 04:10:00,
2013-03-03 22:15:00,49.5,11.1,30.09,SSE,158,1.2,0.0,21,0.00,CLR,,0.00,WeatherDisplay:10.37,2013-03-04 04:15:00,
2013-03-03 22:20:00,49.6,11.2,30.09,ESE,112,2.3,2.3,21,0.00,CLR,,0.00,WeatherDisplay:10.37,2013-03-04 04:20:00,
2013-03-03 22:25:00,49.6,11.2,30.09,SW,225,1.2,0.0,21,0.00,CLR,,0.00,WeatherDisplay:10.37,2013-03-04 04:25:00,
2013-03-03 22:30:00,49.8,11.4,30.12,SSW,202,3.5,3.5,21,0.00,CLR,,0.00,WeatherDisplay:10.37,2013-03-04 04:30:00,
2013-03-03 22:35:00,50.0,11.5,30.12,SSE,158,3.5,3.5,21,0.00,CLR,,0.00,WeatherDisplay:10.37,2013-03-04 04:35:00,
2013-03-03 22:40:00,50.2,11.7,30.12,East,90,2.3,2.3,21,0.00,CLR,,0.00,WeatherDisplay:10.37,2013-03-04 04:40:00,
2013-03-03 22:45:00,50.2,14.7,30.09,SSW,202,3.5,3.5,24,0.00,CLR,,0.00,WeatherDisplay:10.37,2013-03-04 04:45:00,
2013-03-03 22:50:00,50.4,14.9,30.09,ESE,112,2.3,2.3,24,0.00,CLR,,0.00,WeatherDisplay:10.37,2013-03-04 04:50:00,
2013-03-03 22:55:00,50.5,15.0,30.09,South,180,2.3,2.3,24,0.00,CLR,,0.00,WeatherDisplay:10.37,2013-03-04 04:55:00,
2013-03-03 23:00:00,50.7,15.2,30.09,SSE,158,2.3,2.4,24,0.00,CLR,,0.00,WeatherDisplay:10.37,2013-03-04 05:00:00,
2013-03-03 23:05:00,51.1,15.5,30.09,SW,225,2.3,2.3,24,0.00,CLR,,0.00,WeatherDisplay:10.37,2013-03-04 05:05:00,
2013-03-03 23:10:00,50.7,15.2,30.09,ESE,112,0.0,0.0,24,0.00,CLR,,0.00,WeatherDisplay:10.37,2013-03-04 05:10:00,
2013-03-03 23:15:00,50.7,15.2,30.09,ESE,112,2.3,2.3,24,0.00,CLR,,0.00,WeatherDisplay:10.37,2013-03-04 05:15:00,
2013-03-03 23:20:00,50.7,15.2,30.09,East,90,4.6,4.6,24,0.00,CLR,,0.00,WeatherDisplay:10.37,2013-03-04 05:20:00,
2013-03-03 23:25:00,50.9,15.3,30.09,SE,135,3.5,3.5,24,0.00,CLR,,0.00,WeatherDisplay:10.37,2013-03-04 05:25:00,
2013-03-03 23:30:00,51.1,15.5,30.09,SSE,158,3.5,3.5,24,0.00,CLR,,0.00,WeatherDisplay:10.37,2013-03-04 05:30:00,
2013-03-03 23:35:00,51.4,17.6,30.09,SSW,202,5.8,5.8,26,0.00,CLR,,0.00,WeatherDisplay:10.37,2013-03-04 05:35:00,
2013-03-03 23:40:00,51.4,17.6,30.09,NW,315,1.2,0.0,26,0.00,CLR,,0.00,WeatherDisplay:10.37,2013-03-04 05:40:00,
2013-03-03 23:45:00,51.6,17.8,30.12,West,270,3.5,0.0,26,0.00,CLR,,0.00,WeatherDisplay:10.37,2013-03-04 05:45:00,
2013-03-03 23:50:00,51.6,17.8,30.12,SW,225,2.3,2.3,26,0.00,CLR,,0.00,WeatherDisplay:10.37,2013-03-04 05:50:00,
2013-03-03 23:55:00,51.6,17.8,30.12,East,90,2.3,2.3,26,0.00,CLR,,0.00,WeatherDisplay:10.37,2013-03-04 05:55:00,